Asswan, Egypt

11:09 AM EET on January 22, 2017 (GMT +0200)
Aswan International

Weather History for HESN - January, 2012

Change the Weather History Date:

Sunday, January 1, 2012

  Actual Average Record
Temperature  
Mean Temperature 59 °F -  
Max Temperature 68 °F 70 °F 89 °F (2006)
Min Temperature 50 °F 49 °F 46 °F (2002)
Degree Days  
Heating Degree Days 6    
Growing Degree Days 9 (Base 50)    
Moisture  
Dew Point 34 °F    
Average Humidity 37    
Maximum Humidity 54    
Minimum Humidity 18    
Precipitation  
Precipitation 0.00 in 0.00 in - ()
Sea Level Pressure  
Sea Level Pressure 30.15 in    
Wind  
Wind Speed 6 mph ()    
Max Wind Speed 14 mph    
Max Gust Speed -    
Visibility 6.0 miles    
Events      
Averages and records for this station are not official NWS values.
T = Trace of Precipitation, MM = Missing Value Source: Averaged Metar Reports

Daily Weather History Graph

Daily Weather History Graph

Search for Another Location

Airport or City:

Trip Planner

Search our weather history database for the weather conditions in past years. The results will help you decide how hot, cold, wet, or windy it might be!

Date:

Astronomy

Jan. 01, 2012 Rise Set
Actual Time 6:31 AM EET 5:12 PM EET
Civil Twilight 6:06 AM EET 5:37 PM EET
Nautical Twilight 5:38 AM EET 6:05 PM EET
Astronomical Twilight 5:10 AM EET 6:33 PM EET
Moon 11:27 AM EET (1/1) No Moon Set
Length of Visible Light 11h 30m
Length of Day
10h 41m
First Quarter, 51% of the Moon is Illuminated
Jan 1
First Quarter
Jan 9
Full
Jan 16
Last Quarter
Jan 23
New
Jan 31
First Quarter

Hourly Weather History & Observations

Time (EET) Temp. Dew Point Humidity Pressure Visibility Wind Dir Wind Speed Gust Speed Precip Events Conditions
3:00 AM 55.4 °F 35.6 °F 47% 30.12 in - North 5.8 mph - N/A   Clear
4:00 AM 55.4 °F 37.4 °F 51% 30.12 in - North 6.9 mph - N/A   Clear
5:00 AM 53.6 °F 35.6 °F 51% 30.12 in - Calm Calm - N/A   Clear
7:00 AM 51.8 °F 33.8 °F 50% 30.15 in - North 4.6 mph - N/A   Clear
8:00 AM 53 °F 34 °F 37% 30.20 in 6 mi NW 4.6 mph - -  
8:00 AM 50.0 °F 33.8 °F 54% 30.18 in - NW 4.6 mph - N/A   Clear
9:00 AM 59.0 °F 33.8 °F 39% 30.21 in - North 8.1 mph - N/A   Clear
10:00 AM 60.8 °F 35.6 °F 39% 30.21 in - West 13.8 mph - N/A   Clear
11:00 AM 62.6 °F 37.4 °F 39% 30.18 in - North 12.7 mph - N/A   Clear
1:00 PM 66.2 °F 37.4 °F 35% 30.12 in - North 12.7 mph - N/A   Clear
2:00 PM 67 °F 34 °F 18% 30.12 in 6 mi North 12.7 mph - -   Clear
2:00 PM 68.0 °F 33.8 °F 28% 30.12 in - North 12.7 mph - N/A   Clear
3:00 PM 68.0 °F 35.6 °F 30% 30.12 in - North 10.4 mph - N/A   Clear
4:00 PM 68.0 °F 35.6 °F 30% 30.12 in - North 9.2 mph - N/A   Clear
5:00 PM 66.2 °F 33.8 °F 30% 30.12 in - North 6.9 mph - N/A   Clear
6:00 PM 64.4 °F 32.0 °F 30% 30.12 in - NNE 3.5 mph - N/A   Clear
7:00 PM 62.6 °F 32.0 °F 32% 30.15 in - North 4.6 mph - N/A   Clear
8:00 PM 60 °F 34 °F 25% 30.18 in 6 mi North 8.1 mph - -  
8:41 PM 60.8 °F 30.2 °F 31% 30.18 in - North 8.1 mph - N/A   Clear
10:00 PM 55.4 °F 30.2 °F 38% 30.18 in - North 4.6 mph - N/A   Clear